| time (UTC) | temp C | wind direction | speed KPH | gust KPH | rain 1hr cm | rain 24hr cm | rain mn cm | humidity % | barometer mb |
| 20260504215128 | 23 | 236 | 14.5 | 33.8 | 0.00 | 0.00 | 0.00 | 30 | 1007.0 |
| 20260504214628 | 23 | 219 | 16.1 | 33.8 | 0.00 | 0.00 | 0.00 | 30 | 1007.0 |
| 20260504214130 | 23 | 223 | 12.9 | 24.1 | 0.00 | 0.00 | 0.00 | 30 | 1007.1 |
| 20260504213629 | 23 | 238 | 9.7 | 24.1 | 0.00 | 0.00 | 0.00 | 30 | 1007.1 |
| 20260504213129 | 23 | 300 | 12.9 | 30.6 | 0.00 | 0.00 | 0.00 | 31 | 1007.2 |
| 20260504212628 | 23 | 225 | 16.1 | 30.6 | 0.00 | 0.00 | 0.00 | 30 | 1007.1 |
| 20260504212129 | 23 | 189 | 12.9 | 25.7 | 0.00 | 0.00 | 0.00 | 30 | 1007.1 |
| 20260504211629 | 23 | 254 | 14.5 | 27.4 | 0.00 | 0.00 | 0.00 | 30 | 1007.0 |
| 20260504211411 | 23 | 253 | 12.9 | 27.4 | 0.00 | 0.00 | 0.00 | 29 | 1007.0 |
| 20260504210629 | 23 | 200 | 11.3 | 20.9 | 0.00 | 0.00 | 0.00 | 30 | 1007.1 |
| 20260504210129 | 23 | 271 | 9.7 | 20.9 | 0.00 | 0.00 | 0.00 | 30 | 1007.1 |
| 20260504205628 | 23 | 222 | 11.3 | 27.4 | 0.00 | 0.00 | 0.00 | 30 | 1007.1 |
| 20260504205416 | 23 | 231 | 12.9 | 29.0 | 0.00 | 0.00 | 0.00 | 30 | 1007.2 |
| 20260504204915 | 23 | 212 | 14.5 | 30.6 | 0.00 | 0.00 | 0.00 | 31 | 1007.2 |
| 20260504204129 | 23 | 240 | 14.5 | 30.6 | 0.00 | 0.00 | 0.00 | 30 | 1007.1 |
| 20260504203628 | 23 | 182 | 12.9 | 27.4 | 0.00 | 0.00 | 0.00 | 29 | 1007.0 |
| 20260504203129 | 23 | 213 | 11.3 | 27.4 | 0.00 | 0.00 | 0.00 | 30 | 1007.1 |
| 20260504202913 | 23 | 221 | 11.3 | 22.5 | 0.00 | 0.00 | 0.00 | 30 | 1007.0 |
| 20260504202129 | 23 | 292 | 12.9 | 24.1 | 0.00 | 0.00 | 0.00 | 31 | 1007.2 |
| 20260504201629 | 23 | 220 | 12.9 | 29.0 | 0.00 | 0.00 | 0.00 | 30 | 1007.3 |
| 20260504201130 | 23 | 192 | 14.5 | 29.0 | 0.00 | 0.00 | 0.00 | 30 | 1007.2 |
| 20260504200630 | 23 | 223 | 16.1 | 29.0 | 0.00 | 0.00 | 0.00 | 30 | 1007.3 |
| 20260504200206 | 23 | 213 | 14.5 | 30.6 | 0.00 | 0.00 | 0.00 | 31 | 1007.2 |
| 20260504200150 | 23 | 257 | 14.5 | 29.0 | 0.00 | 0.00 | 0.00 | 31 | 1007.3 |
| 20260504195128 | 23 | 165 | 17.7 | 30.6 | 0.00 | 0.00 | 0.00 | 31 | 1007.5 |
| 20260504194629 | 23 | 252 | 14.5 | 29.0 | 0.00 | 0.00 | 0.00 | 31 | 1007.5 |
| 20260504194134 | 23 | 208 | 11.3 | 24.1 | 0.00 | 0.00 | 0.00 | 31 | 1007.4 |
| 20260504193632 | 23 | 187 | 11.3 | 25.7 | 0.00 | 0.00 | 0.00 | 31 | 1007.5 |
| 20260504193409 | 23 | 265 | 11.3 | 25.7 | 0.00 | 0.00 | 0.00 | 31 | 1007.6 |
| 20260504192630 | 23 | 210 | 12.9 | 29.0 | 0.00 | 0.00 | 0.00 | 31 | 1007.6 |
| 20260504192412 | 23 | 239 | 12.9 | 29.0 | 0.00 | 0.00 | 0.00 | 31 | 1007.8 |
| 20260504191628 | 23 | 189 | 14.5 | 27.4 | 0.00 | 0.00 | 0.00 | 32 | 1007.9 |
| 20260504191128 | 23 | 226 | 16.1 | 32.2 | 0.00 | 0.00 | 0.00 | 31 | 1007.9 |
| 20260504190910 | 23 | 230 | 14.5 | 32.2 | 0.00 | 0.00 | 0.00 | 31 | 1007.8 |
| 20260504190411 | 23 | 254 | 14.5 | 30.6 | 0.00 | 0.00 | 0.00 | 33 | 1008.0 |
| 20260504185629 | 23 | 250 | 16.1 | 33.8 | 0.00 | 0.00 | 0.00 | 32 | 1008.3 |
| 20260504185128 | 23 | 261 | 16.1 | 33.8 | 0.00 | 0.00 | 0.00 | 32 | 1008.4 |
| 20260504184630 | 22 | 200 | 16.1 | 29.0 | 0.00 | 0.00 | 0.00 | 33 | 1008.3 |
| 20260504184410 | 22 | 226 | 14.5 | 27.4 | 0.00 | 0.00 | 0.00 | 33 | 1008.4 |
| 20260504183632 | 22 | 232 | 14.5 | 38.6 | 0.00 | 0.00 | 0.00 | 33 | 1008.6 |
| 20260504183131 | 22 | 173 | 16.1 | 38.6 | 0.00 | 0.00 | 0.00 | 32 | 1008.4 |
| 20260504182631 | 22 | 210 | 16.1 | 32.2 | 0.00 | 0.00 | 0.00 | 32 | 1008.5 |
| 20260504182131 | 22 | 196 | 14.5 | 32.2 | 0.00 | 0.00 | 0.00 | 32 | 1008.6 |
| 20260504181630 | 22 | 234 | 14.5 | 30.6 | 0.00 | 0.00 | 0.00 | 32 | 1008.6 |
| 20260504181129 | 22 | 215 | 16.1 | 30.6 | 0.00 | 0.00 | 0.00 | 33 | 1008.7 |
| 20260504180629 | 22 | 196 | 16.1 | 33.8 | 0.00 | 0.00 | 0.00 | 32 | 1008.8 |
| 20260504180129 | 22 | 211 | 14.5 | 33.8 | 0.00 | 0.00 | 0.00 | 33 | 1008.8 |
| 20260504175629 | 22 | 202 | 14.5 | 29.0 | 0.00 | 0.00 | 0.00 | 32 | 1008.8 |
| 20260504175129 | 22 | 200 | 16.1 | 35.4 | 0.00 | 0.00 | 0.00 | 33 | 1008.8 |
| 20260504174913 | 22 | 162 | 16.1 | 35.4 | 0.00 | 0.00 | 0.00 | 33 | 1009.0 |
| 20260504174413 | 22 | 248 | 17.7 | 32.2 | 0.00 | 0.00 | 0.00 | 33 | 1009.1 |
| 20260504173630 | 21 | 189 | 17.7 | 30.6 | 0.00 | 0.00 | 0.00 | 33 | 1009.0 |
| 20260504173128 | 21 | 158 | 16.1 | 29.0 | 0.00 | 0.00 | 0.00 | 32 | 1009.0 |
| 20260504172629 | 21 | 234 | 14.5 | 29.0 | 0.00 | 0.00 | 0.00 | 34 | 1009.3 |
| 20260504172128 | 21 | 230 | 12.9 | 29.0 | 0.00 | 0.00 | 0.00 | 34 | 1009.2 |
| 20260504171629 | 21 | 279 | 11.3 | 24.1 | 0.00 | 0.00 | 0.00 | 35 | 1009.3 |
| 20260504171130 | 21 | 238 | 11.3 | 24.1 | 0.00 | 0.00 | 0.00 | 34 | 1009.3 |
| 20260504170941 | 21 | 247 | 16.1 | 30.6 | 0.00 | 0.00 | 0.00 | 34 | 1009.6 |
| 20260504170936 | 21 | 186 | 11.3 | 30.6 | 0.00 | 0.00 | 0.00 | 33 | 1009.4 |
| 20260504160130 | 20 | 220 | 12.9 | 29.0 | 0.00 | 0.00 | 0.00 | 35 | 1010.2 |
| 20260504151131 | 19 | 239 | 14.5 | 30.6 | 0.00 | 0.00 | 0.00 | 36 | 1010.8 |
| 20260504150629 | 19 | 192 | 17.7 | 32.2 | 0.00 | 0.00 | 0.00 | 38 | 1010.8 |
| 20260504150129 | 19 | 231 | 17.7 | 32.2 | 0.00 | 0.00 | 0.00 | 35 | 1010.8 |
| 20260504140629 | 17 | 202 | 17.7 | 33.8 | 0.00 | 0.00 | 0.00 | 41 | 1011.1 |
| 20260504140130 | 17 | 240 | 20.9 | 38.6 | 0.00 | 0.00 | 0.00 | 40 | 1011.1 |
| 20260504130119 | 16 | 244 | 11.3 | 30.6 | 0.00 | 0.00 | 0.00 | 47 | 1011.7 |
| 20260504120109 | 13 | 238 | 12.9 | 22.5 | 0.00 | 0.00 | 0.00 | 59 | 1011.9 |
| 20260504110602 | 11 | 211 | 12.9 | 30.6 | 0.00 | 0.00 | 0.00 | 62 | 1012.1 |
| 20260504110348 | 11 | 240 | 14.5 | 30.6 | 0.00 | 0.00 | 0.00 | 62 | 1012.2 |
| 20260504100529 | 10 | 205 | 9.7 | 19.3 | 0.00 | 0.00 | 0.00 | 58 | 1012.0 |
| 20260504081529 | 12 | 241 | 11.3 | 22.5 | 0.00 | 0.00 | 0.00 | 47 | 1011.7 |
| 20260504081029 | 12 | 237 | 9.7 | 20.9 | 0.00 | 0.00 | 0.00 | 46 | 1011.7 |
| 20260504080811 | 12 | 191 | 9.7 | 20.9 | 0.00 | 0.00 | 0.00 | 46 | 1011.7 |
| 20260504050530 | 12 | 251 | 9.7 | 22.5 | 0.00 | 0.00 | 0.00 | 42 | 1011.0 |
| 20260504045528 | 12 | 224 | 8.0 | 24.1 | 0.00 | 0.00 | 0.00 | 42 | 1011.0 |
| 20260504045030 | 12 | 249 | 9.7 | 20.9 | 0.00 | 0.00 | 0.00 | 42 | 1011.0 |
| 20260504044530 | 13 | 244 | 9.7 | 24.1 | 0.00 | 0.00 | 0.00 | 42 | 1011.0 |
| 20260504044029 | 12 | 210 | 11.3 | 24.1 | 0.00 | 0.00 | 0.00 | 42 | 1011.0 |
| 20260504043531 | 13 | 212 | 11.3 | 22.5 | 0.00 | 0.00 | 0.00 | 42 | 1010.9 |
| 20260504043315 | 13 | 236 | 9.7 | 19.3 | 0.00 | 0.00 | 0.00 | 42 | 1010.9 |
| 20260504042530 | 13 | 258 | 9.7 | 19.3 | 0.00 | 0.00 | 0.00 | 42 | 1010.8 |
| 20260504042029 | 13 | 225 | 9.7 | 19.3 | 0.00 | 0.00 | 0.00 | 41 | 1010.9 |
| 20260504041528 | 13 | 218 | 9.7 | 24.1 | 0.00 | 0.00 | 0.00 | 41 | 1010.8 |
| 20260504041028 | 13 | 228 | 9.7 | 24.1 | 0.00 | 0.00 | 0.00 | 41 | 1010.8 |
| 20260504040816 | 13 | 218 | 11.3 | 24.1 | 0.00 | 0.00 | 0.00 | 41 | 1010.8 |
| 20260504040030 | 13 | 227 | 11.3 | 24.1 | 0.00 | 0.00 | 0.00 | 41 | 1010.8 |
| 20260504035529 | 13 | 240 | 9.7 | 22.5 | 0.00 | 0.00 | 0.00 | 41 | 1010.6 |
| 20260504035029 | 13 | 160 | 9.7 | 20.9 | 0.00 | 0.00 | 0.00 | 41 | 1010.7 |
| 20260504034528 | 13 | 246 | 9.7 | 22.5 | 0.00 | 0.00 | 0.00 | 40 | 1010.7 |
| 20260504034028 | 13 | 207 | 9.7 | 22.5 | 0.00 | 0.00 | 0.00 | 40 | 1010.7 |
| 20260504033529 | 13 | 215 | 9.7 | 19.3 | 0.00 | 0.00 | 0.00 | 40 | 1010.7 |
| 20260504033030 | 13 | 237 | 9.7 | 17.7 | 0.00 | 0.00 | 0.00 | 40 | 1010.6 |
| 20260504032530 | 13 | 181 | 9.7 | 25.7 | 0.00 | 0.00 | 0.00 | 40 | 1010.4 |
| 20260504032030 | 13 | 241 | 9.7 | 25.7 | 0.00 | 0.00 | 0.00 | 39 | 1010.4 |
| 20260504031528 | 13 | 229 | 11.3 | 22.5 | 0.00 | 0.00 | 0.00 | 39 | 1010.5 |
| 20260504031029 | 13 | 234 | 11.3 | 22.5 | 0.00 | 0.00 | 0.00 | 39 | 1010.5 |
| 20260504030529 | 13 | 248 | 9.7 | 20.9 | 0.00 | 0.00 | 0.00 | 39 | 1010.5 |
| 20260504030030 | 13 | 228 | 9.7 | 20.9 | 0.00 | 0.00 | 0.00 | 39 | 1010.4 |
| 20260504025812 | 13 | 230 | 9.7 | 20.9 | 0.00 | 0.00 | 0.00 | 39 | 1010.4 |
| 20260504025028 | 13 | 266 | 8.0 | 20.9 | 0.00 | 0.00 | 0.00 | 39 | 1010.3 |
| 20260504024529 | 13 | 237 | 8.0 | 19.3 | 0.00 | 0.00 | 0.00 | 39 | 1010.3 |
| 20260504024029 | 13 | 196 | 9.7 | 19.3 | 0.00 | 0.00 | 0.00 | 39 | 1010.3 |
| 20260504023529 | 13 | 198 | 8.0 | 16.1 | 0.00 | 0.00 | 0.00 | 40 | 1010.5 |
| 20260504023030 | 12 | 219 | 6.4 | 16.1 | 0.00 | 0.00 | 0.00 | 40 | 1010.5 |
| 20260504022527 | 12 | 222 | 4.8 | 11.3 | 0.00 | 0.00 | 0.00 | 40 | 1010.3 |
| 20260504022016 | 13 | 239 | 4.8 | 11.3 | 0.00 | 0.00 | 0.00 | 40 | 1010.5 |
| 20260504021509 | 13 | 224 | 4.8 | 11.3 | 0.00 | 0.00 | 0.00 | 39 | 1010.5 |
| 20260504021009 | 13 | 219 | 4.8 | 9.7 | 0.00 | 0.00 | 0.00 | 39 | 1010.5 |
| 20260504020510 | 13 | 234 | 4.8 | 9.7 | 0.00 | 0.00 | 0.00 | 39 | 1010.6 |
| 20260504020007 | 13 | 246 | 4.8 | 9.7 | 0.00 | 0.00 | 0.00 | 39 | 1010.6 |
| 20260504015506 | 13 | 222 | 4.8 | 8.0 | 0.00 | 0.00 | 0.00 | 39 | 1010.5 |
| 20260504015034 | 12 | 206 | 4.8 | 9.7 | 0.00 | 0.00 | 0.00 | 39 | 1010.5 |
| 20260504015025 | 12 | 211 | 3.2 | 9.7 | 0.00 | 0.00 | 0.00 | 39 | 1010.4 |
| 20260504014004 | 12 | 206 | 3.2 | 8.0 | 0.00 | 0.00 | 0.00 | 39 | 1010.4 |
| 20260504013747 | 12 | 223 | 3.2 | 6.4 | 0.00 | 0.00 | 0.00 | 39 | 1010.4 |
| 20260504013000 | 13 | 209 | 3.2 | 8.0 | 0.00 | 0.00 | 0.00 | 38 | 1010.3 |
| 20260504012502 | 13 | 215 | 3.2 | 9.7 | 0.00 | 0.00 | 0.00 | 38 | 1010.3 |
| 20260504012001 | 13 | 210 | 4.8 | 9.7 | 0.00 | 0.00 | 0.00 | 38 | 1010.2 |
| 20260504011501 | 13 | 234 | 4.8 | 11.3 | 0.00 | 0.00 | 0.00 | 38 | 1010.2 |
| 20260504011001 | 13 | 223 | 4.8 | 11.3 | 0.00 | 0.00 | 0.00 | 38 | 1010.1 |
| 20260504010748 | 13 | 214 | 4.8 | 9.7 | 0.00 | 0.00 | 0.00 | 38 | 1010.0 |
| 20260504010247 | 13 | 233 | 4.8 | 8.0 | 0.00 | 0.00 | 0.00 | 37 | 1010.0 |
| 20260504005501 | 13 | 232 | 4.8 | 8.0 | 0.00 | 0.00 | 0.00 | 37 | 1010.0 |
| 20260504005246 | 13 | 247 | 3.2 | 8.0 | 0.00 | 0.00 | 0.00 | 36 | 1009.9 |
| 20260504004501 | 13 | 233 | 3.2 | 8.0 | 0.00 | 0.00 | 0.00 | 36 | 1009.8 |
| 20260504004001 | 13 | 237 | 3.2 | 8.0 | 0.00 | 0.00 | 0.00 | 36 | 1009.8 |
| 20260504003504 | 13 | 236 | 1.6 | 6.4 | 0.00 | 0.00 | 0.00 | 35 | 1009.7 |
| 20260504003005 | 14 | 230 | 1.6 | 6.4 | 0.00 | 0.00 | 0.00 | 35 | 1009.6 |
| 20260504002502 | 14 | 236 | 3.2 | 6.4 | 0.00 | 0.00 | 0.00 | 34 | 1009.5 |
| 20260504002002 | 14 | 213 | 3.2 | 6.4 | 0.00 | 0.00 | 0.00 | 34 | 1009.4 |
| 20260504001502 | 14 | 241 | 3.2 | 8.0 | 0.00 | 0.00 | 0.00 | 34 | 1009.4 |
| 20260504001003 | 15 | 237 | 3.2 | 9.7 | 0.00 | 0.00 | 0.00 | 33 | 1009.2 |
| 20260504000502 | 15 | 248 | 4.8 | 9.7 | 0.00 | 0.00 | 0.00 | 33 | 1009.0 |
| 20260504000002 | 15 | 227 | 4.8 | 14.5 | 0.00 | 0.00 | 0.00 | 32 | 1009.0 |
| 20260503235502 | 15 | 241 | 3.2 | 14.5 | 0.00 | 0.00 | 0.00 | 32 | 1009.0 |
| 20260503235002 | 15 | 221 | 3.2 | 9.7 | 0.00 | 0.00 | 0.00 | 32 | 1009.0 |
| 20260503234502 | 15 | 289 | 4.8 | 14.5 | 0.00 | 0.00 | 0.00 | 32 | 1009.0 |
| 20260503234003 | 15 | 266 | 4.8 | 16.1 | 0.00 | 0.00 | 0.00 | 31 | 1009.1 |
| 20260503233818 | 15 | 252 | 6.4 | 14.5 | 0.00 | 0.00 | 0.00 | 30 | 1008.9 |
| 20260503233528 | 15 | 282 | 6.4 | 16.1 | 0.00 | 0.00 | 0.00 | 31 | 1009.0 |
| 20260503232502 | 15 | 247 | 6.4 | 20.9 | 0.00 | 0.00 | 0.00 | 30 | 1008.9 |
| 20260503232002 | 15 | 248 | 6.4 | 20.9 | 0.00 | 0.00 | 0.00 | 31 | 1008.9 |
| 20260503231503 | 16 | 273 | 6.4 | 16.1 | 0.00 | 0.00 | 0.00 | 30 | 1008.8 |
| 20260503231003 | 16 | 271 | 8.0 | 19.3 | 0.00 | 0.00 | 0.00 | 29 | 1008.8 |
| 20260503230501 | 16 | 264 | 6.4 | 19.3 | 0.00 | 0.00 | 0.00 | 29 | 1008.7 |
| 20260503230002 | 16 | 205 | 6.4 | 22.5 | 0.00 | 0.00 | 0.00 | 29 | 1008.6 |
| 20260503225503 | 16 | 310 | 6.4 | 22.5 | 0.00 | 0.00 | 0.00 | 30 | 1008.6 |
| 20260503225003 | 16 | 246 | 8.0 | 20.9 | 0.00 | 0.00 | 0.00 | 30 | 1008.6 |
| 20260503224502 | 16 | 198 | 8.0 | 20.9 | 0.00 | 0.00 | 0.00 | 29 | 1008.6 |
| 20260503224001 | 16 | 277 | 6.4 | 17.7 | 0.00 | 0.00 | 0.00 | 29 | 1008.6 |
| 20260503223503 | 16 | 227 | 6.4 | 17.7 | 0.00 | 0.00 | 0.00 | 30 | 1008.5 |
| 20260503223002 | 16 | 302 | 8.0 | 17.7 | 0.00 | 0.00 | 0.00 | 30 | 1008.4 |
| 20260503222502 | 16 | 306 | 8.0 | 20.9 | 0.00 | 0.00 | 0.00 | 30 | 1008.4 |
| 20260503222003 | 16 | 234 | 8.0 | 22.5 | 0.00 | 0.00 | 0.00 | 29 | 1008.5 |
| 20260503221503 | 16 | 277 | 8.0 | 25.7 | 0.00 | 0.00 | 0.00 | 29 | 1008.5 |
| 20260503221001 | 16 | 275 | 8.0 | 25.7 | 0.00 | 0.00 | 0.00 | 30 | 1008.5 |
| 20260503220501 | 16 | 287 | 9.7 | 24.1 | 0.00 | 0.00 | 0.00 | 31 | 1008.5 |
| 20260503220001 | 16 | 311 | 9.7 | 20.9 | 0.00 | 0.00 | 0.00 | 30 | 1008.4 |
| 20260503215502 | 16 | 261 | 9.7 | 22.5 | 0.00 | 0.00 | 0.00 | 30 | 1008.6 |